Location: Ku?niki
(51.4449°N, 17.8974°E)
Time: 07:31:31
(UTC+00:00)

EO-79 - Pass Details

Date: 04 July 2022
Orbit: 588 x 603 km, 98.0° (Epoch: 09 August)

Event Time Altitude Azimuth Distance (km) Brightness Sun altitude
Rises 01:25:02 0° 8° (N) 2,859 ? -8.5°
Reaches altitude 10° 01:27:18 10° 0° (N) 1,954 ? -8.3°
Maximum altitude 01:31:14 38° 293° (WNW) 931 ? -7.9°
Drops below altitude 10° 01:35:08 10° 226° (SW) 1,947 ? -7.6°
Enters shadow 01:35:15 - 225° (SW) 1,993 ? -7.6°
